GW2996 Weather Reports


Display with metric or nautical units.
time (UTC)temp
F
wind
direction
speed
MPH
gust
MPH
rain 1hr
in
rain 24hr
in
rain mn
in
humidity
%
barometer
mb
20260504100148 42 67 3.0 3.0 0.00 0.00 0.00 81 1007.0
20260504090111 43 22 1.0 3.0 0.00 0.00 0.00 69 1007.1
20260504081541 42 358 2.0 2.0 0.00 0.00 0.00 65 1007.6
20260504081037 41 10 0.0 2.0 0.00 0.00 0.00 66 1007.7
20260504080534 41 14 2.0 3.0 0.00 0.00 0.00 66 1007.6
20260504050346 30 38 0.0 3.0 0.00 0.00 0.00 82 1008.3
20260504045844 30 344 0.0 3.0 0.00 0.00 0.00 82 1008.1
20260504045343 30 17 2.0 2.0 0.00 0.00 0.00 82 1008.2
20260504044841 30 7 2.0 2.0 0.00 0.00 0.00 82 1008.5
20260504044338 30 50 0.0 3.0 0.00 0.00 0.00 82 1008.5
20260504043835 30 15 2.0 2.0 0.00 0.00 0.00 82 1008.5
20260504043332 31 1 2.0 2.0 0.00 0.00 0.00 81 1008.4
20260504042829 31 23 2.0 3.0 0.00 0.00 0.00 81 1008.5
20260504042325 31 7 2.0 2.0 0.00 0.00 0.00 81 1008.7
20260504041822 30 9 2.0 3.0 0.00 0.00 0.00 81 1008.5
20260504041318 31 322 0.0 3.0 0.00 0.00 0.00 80 1008.5
20260504040814 31 356 2.0 3.0 0.00 0.00 0.00 79 1008.5
20260504040312 31 29 1.0 2.0 0.00 0.00 0.00 81 1008.4
20260504035808 31 5 2.0 2.0 0.00 0.00 0.00 81 1008.5
20260504035305 32 29 0.0 2.0 0.00 0.00 0.00 80 1008.4
20260504034802 32 15 2.0 2.0 0.00 0.00 0.00 79 1008.7
20260504034300 32 3 3.0 3.0 0.00 0.00 0.00 79 1008.6
20260504033757 32 18 3.0 3.0 0.00 0.00 0.00 78 1008.8
20260504033255 32 10 0.0 3.0 0.00 0.00 0.00 77 1008.6
20260504032751 32 23 2.0 2.0 0.00 0.00 0.00 80 1008.7
20260504032248 32 54 1.0 1.0 0.00 0.00 0.00 78 1008.5
20260504031745 32 35 2.0 2.0 0.00 0.00 0.00 79 1008.6
20260504031243 32 52 0.0 1.0 0.00 0.00 0.00 78 1008.6
20260504030738 33 16 0.0 3.0 0.00 0.00 0.00 77 1008.7
20260504030236 33 8 2.0 2.0 0.00 0.00 0.00 76 1008.6
20260504025732 33 28 3.0 3.0 0.00 0.00 0.00 76 1008.8
20260504025229 33 19 3.0 3.0 0.00 0.00 0.00 76 1008.7
20260504024726 34 342 2.0 3.0 0.00 0.00 0.00 74 1008.8
20260504024222 35 334 3.0 3.0 0.00 0.00 0.00 72 1008.8
20260504023719 34 359 2.0 2.0 0.00 0.00 0.00 75 1009.0
20260504023215 34 325 2.0 2.0 0.00 0.00 0.00 74 1008.7
20260504022712 35 40 2.0 3.0 0.00 0.00 0.00 73 1008.8
20260504022208 36 14 1.0 2.0 0.00 0.00 0.00 71 1008.9
20260504021706 36 353 2.0 2.0 0.00 0.00 0.00 71 1008.8
20260504021202 36 20 2.0 3.0 0.00 0.00 0.00 69 1008.9
20260504020659 36 358 2.0 2.0 0.00 0.00 0.00 71 1008.8
20260504020155 35 0 2.0 2.0 0.00 0.00 0.00 74 1008.9
20260504015652 35 359 2.0 3.0 0.00 0.00 0.00 73 1008.6
20260504015148 36 17 2.0 4.0 0.00 0.00 0.00 72 1008.7
20260504014644 37 11 2.0 3.0 0.00 0.00 0.00 70 1008.7
20260504014141 36 357 3.0 3.0 0.00 0.00 0.00 72 1008.7
20260504013639 37 10 2.0 3.0 0.00 0.00 0.00 71 1008.8
20260504013136 37 3 3.0 3.0 0.00 0.00 0.00 72 1008.9
20260504012633 36 345 2.0 3.0 0.00 0.00 0.00 73 1008.8
20260504012131 37 352 3.0 3.0 0.00 0.00 0.00 72 1008.7
20260504011627 37 346 3.0 4.0 0.00 0.00 0.00 70 1008.7
20260504011124 38 12 3.0 3.0 0.00 0.00 0.00 69 1008.6
20260504010620 39 16 2.0 3.0 0.00 0.00 0.00 67 1008.6
20260504010116 40 343 2.0 3.0 0.00 0.00 0.00 65 1008.7
20260504005613 41 19 2.0 3.0 0.00 0.00 0.00 60 1008.5
20260504005110 41 21 1.0 2.0 0.00 0.00 0.00 61 1008.4
20260504004608 41 32 0.0 1.0 0.00 0.00 0.00 61 1008.5
20260504004105 41 5 1.0 2.0 0.00 0.00 0.00 60 1008.5
20260504003600 42 6 0.0 1.0 0.00 0.00 0.00 58 1008.5
20260504003057 43 32 0.0 1.0 0.00 0.00 0.00 57 1008.3
20260504002554 44 13 0.0 1.0 0.00 0.00 0.00 56 1008.3
20260504002052 44 5 1.0 2.0 0.00 0.00 0.00 55 1008.3
20260504001550 45 113 0.0 0.0 0.00 0.00 0.00 56 1008.2
20260504001045 45 113 0.0 0.0 0.00 0.00 0.00 54 1008.3
20260504000543 46 32 0.0 0.0 0.00 0.00 0.00 53 1008.4
20260504000040 47 345 0.0 1.0 0.00 0.00 0.00 53 1008.2
20260503235538 47 124 0.0 1.0 0.00 0.00 0.00 50 1008.1
20260503235035 48 101 1.0 2.0 0.00 0.00 0.00 49 1008.3
20260503234532 48 61 1.0 2.0 0.00 0.00 0.00 48 1008.2
20260503234031 48 186 0.0 1.0 0.00 0.00 0.00 48 1008.1
20260503233527 49 38 0.0 2.0 0.00 0.00 0.00 49 1008.1
20260503233023 49 148 0.0 3.0 0.00 0.00 0.00 48 1008.1
20260503232520 49 240 0.0 1.0 0.00 0.00 0.00 47 1007.9
20260503232018 49 104 0.0 1.0 0.00 0.00 0.00 47 1007.9
20260503231515 49 227 2.0 3.0 0.00 0.00 0.00 48 1008.2
20260503231012 50 287 0.0 6.0 0.00 0.00 0.00 49 1008.1
20260503230508 50 219 1.0 2.0 0.00 0.00 0.00 48 1008.1
20260503230006 50 269 0.0 3.0 0.00 0.00 0.00 45 1008.1
20260503225503 50 215 2.0 5.0 0.00 0.00 0.00 46 1008.2
20260503224958 50 180 0.0 2.0 0.00 0.00 0.00 49 1008.1
20260503224455 50 34 1.0 3.0 0.00 0.00 0.00 47 1008.2
20260503223953 50 197 0.0 2.0 0.00 0.00 0.00 46 1008.2
20260503223451 50 186 0.0 3.0 0.00 0.00 0.00 45 1008.2
20260503222946 50 209 2.0 2.0 0.00 0.00 0.00 46 1008.2
20260503222444 50 212 2.0 4.0 0.00 0.00 0.00 47 1008.2
20260503221942 50 152 2.0 2.0 0.00 0.00 0.00 46 1008.4
20260503221440 51 275 2.0 4.0 0.00 0.00 0.00 46 1008.2
20260503220937 51 288 0.0 10.0 0.00 0.00 0.00 47 1008.3
20260503220433 50 34 0.0 3.0 0.00 0.00 0.00 46 1008.4
20260503215930 50 21 0.0 7.0 0.00 0.00 0.00 49 1008.2
20260503215427 51 213 3.0 5.0 0.00 0.00 0.00 46 1008.1
20260503214925 51 313 3.0 3.0 0.00 0.00 0.00 46 1008.4
20260503214422 50 100 0.0 3.0 0.00 0.00 0.00 47 1008.3
20260503213920 50 277 1.0 2.0 0.00 0.00 0.00 45 1008.3
20260503213417 50 341 0.0 3.0 0.00 0.00 0.00 46 1008.3
20260503212913 50 211 0.0 3.0 0.00 0.00 0.00 46 1008.4
20260503212411 51 107 0.0 1.0 0.00 0.00 0.00 45 1008.5
20260503211909 51 168 5.0 6.0 0.00 0.00 0.00 46 1008.4
20260503211405 51 300 2.0 3.0 0.00 0.00 0.00 46 1008.7
20260503210901 50 101 0.0 3.0 0.00 0.00 0.00 46 1008.4
20260503210358 51 169 0.0 2.0 0.00 0.00 0.00 46 1008.4
20260503205853 52 16 0.0 3.0 0.00 0.00 0.00 44 1008.5
20260503205350 52 312 2.0 7.0 0.00 0.00 0.00 46 1008.4
20260503204846 50 31 4.0 5.0 0.00 0.00 0.00 46 1008.4
20260503204343 51 202 5.0 5.0 0.00 0.00 0.00 44 1008.3
20260503203841 51 216 2.0 4.0 0.00 0.00 0.00 47 1008.5
20260503203338 50 232 2.0 3.0 0.00 0.00 0.00 47 1008.5
20260503202835 49 227 5.0 5.0 0.00 0.00 0.00 49 1008.7
20260503202333 49 180 2.0 4.0 0.00 0.00 0.00 52 1008.4
20260503201831 49 303 0.0 5.0 0.00 0.00 0.00 50 1008.5
20260503201328 48 143 2.0 4.0 0.00 0.00 0.00 49 1008.6
20260503200825 48 345 3.0 4.0 0.00 0.00 0.00 50 1008.6
20260503200321 48 11 1.0 3.0 0.00 0.00 0.00 51 1008.6
20260503195819 48 308 4.0 6.0 0.00 0.00 0.00 49 1008.7
20260503195315 49 52 1.0 4.0 0.00 0.00 0.00 49 1008.8
20260503194813 50 199 3.0 10.0 0.00 0.00 0.00 50 1008.8
20260503194308 51 278 2.0 7.0 0.00 0.00 0.00 49 1008.9
20260503193804 51 318 0.0 2.0 0.00 0.00 0.00 53 1008.9
20260503193300 51 243 0.0 5.0 0.00 0.00 0.00 46 1008.9
20260503192756 50 237 2.0 8.0 0.00 0.00 0.00 51 1008.9
20260503192252 50 291 2.0 2.0 0.00 0.00 0.00 50 1009.0
20260503191749 49 325 2.0 3.0 0.00 0.00 0.00 50 1009.1
20260503191246 49 219 3.0 12.0 0.00 0.00 0.00 52 1009.1
20260503190742 50 98 2.0 4.0 0.00 0.00 0.00 52 1009.1
20260503190239 50 306 2.0 4.0 0.00 0.00 0.00 51 1009.4
20260503185737 50 341 1.0 7.0 0.00 0.00 0.00 53 1009.3
20260503185232 48 58 1.0 3.0 0.00 0.00 0.00 51 1009.4
20260503184727 48 190 3.0 4.0 0.00 0.00 0.00 52 1009.5
20260503184223 47 100 1.0 3.0 0.00 0.00 0.00 53 1009.4
20260503183720 48 330 5.0 9.0 0.00 0.00 0.00 52 1009.5
20260503183217 49 224 0.0 4.0 0.00 0.00 0.00 49 1009.3
20260503182716 50 121 1.0 4.0 0.00 0.00 0.00 49 1009.6
20260503182214 49 0 1.0 10.0 0.00 0.00 0.00 52 1009.6
20260503181709 48 199 3.0 4.0 0.00 0.00 0.00 50 1009.4
20260503181207 49 8 3.0 5.0 0.00 0.00 0.00 52 1009.5
20260503180703 49 330 7.0 11.0 0.00 0.00 0.00 50 1009.6
20260503180202 48 304 4.0 10.0 0.00 0.00 0.00 52 1009.7
20260503175658 49 304 1.0 6.0 0.00 0.00 0.00 52 1009.6
20260503175156 48 229 0.0 5.0 0.00 0.00 0.00 50 1009.7
20260503174652 47 5 1.0 4.0 0.00 0.00 0.00 51 1009.7
20260503174150 48 0 2.0 6.0 0.00 0.00 0.00 49 1009.6
20260503173644 48 300 2.0 5.0 0.00 0.00 0.00 52 1009.8
20260503173141 48 216 2.0 3.0 0.00 0.00 0.00 55 1009.6
20260503172638 48 173 3.0 8.0 0.00 0.00 0.00 52 1009.7
20260503172130 48 194 2.0 7.0 0.00 0.00 0.00 52 1009.5
20260503171626 48 231 3.0 9.0 0.00 0.00 0.00 52 1009.8
20260503171123 47 11 6.0 7.0 0.00 0.00 0.00 55 1009.7
20260503170620 46 38 2.0 6.0 0.00 0.00 0.00 61 1009.8
20260503170116 45 8 5.0 12.0 0.00 0.00 0.00 61 1009.9
20260503151012 47 32 3.0 4.0 0.00 0.00 0.00 56 1010.6
20260503150508 47 263 2.0 3.0 0.00 0.00 0.00 56 1010.5
20260503131350 45 40 6.0 6.0 0.00 0.00 0.00 67 1011.7
20260503130847 45 4 7.0 10.0 0.00 0.00 0.00 69 1011.6
20260503130345 44 0 3.0 5.0 0.00 0.00 0.00 71 1011.7
20260503110739 39 103 2.0 3.0 0.00 0.00 0.00 89 1011.9
20260503110236 39 120 2.0 2.0 0.00 0.00 0.00 89 1011.7